Other Public Products
Issued by NWS Grand Forks, ND

Home | Current Version | Previous Version | Text Only | Print | Product List | Glossary Off
Versions: 1 2 3 4 5 6 7 8 9 10 11 12 13 14 15 16 17 18 19 20 21 22 23 24 25 26 27 28 29 30 31 32 33 34 35 36 37 38 39 40 41 42 43 44 45 46 47 48 49 50

714
FPUS83 KFGF 220410
OPUFGF
PRAIRIE TO PINES WEATHER ROUNDUP
NATIONAL WEATHER SERVICE EASTERN NORTH DAKOTA/GRAND FORKS ND
1000 PM CST SAT JAN 21 2017

 **SATELLITE DATA USED TO AUGMENT SKY COVER AT AUTOMATED STATIONS**
 *****  WEATHER ACROSS EASTERN NORTH DAKOTA  *****

CITY           SKY/WX    TMP DP  RH WIND       PRES   REMARKS
GRAND FORKS    FOG       35  33  92 E3        29.55R VSB 3/4
GRAND FORKS AF FOG       32  32 100 CALM      29.55S VSB 3/4
GRAND CITY NWS NOT AVBL
BUXTON         NOT AVBL
DEVILS LAKE    CLOUDY    32  31  96 SW6       29.55R
FARGO          FOG       36  34  92 CALM      29.55R VSB 1/4
WAHPETON ARPT  CLOUDY    32  32 100 CALM      29.56R VSB 1/2
$$

 *****  WEATHER ACROSS CENTRAL AND WESTERN NORTH DAKOTA  *****

CITY           SKY/WX    TMP DP  RH WIND       PRES   REMARKS
JAMESTOWN      CLOUDY    33  31  92 W5        29.54R
BISMARCK       FAIR      21  18  88 CALM      29.57R
MINOT          CLOUDY    29  26  89 SW7       29.53R WCI  22
MINOT AFB      MOCLDY    30  28  92 W9        29.52R WCI  21
GARRISON         N/A     25  23  92 W5        29.54R WCI  19
WILLISTON      CLOUDY    30  28  92 W8        29.58R WCI  22
DICKINSON      FAIR      22  17  81 W14       29.54R WCI   9
HETTINGER      FAIR      21  18  88 W13       29.59R WCI   9
$$

 *****  OTHER OBSERVATIONS NORTHEAST NORTH DAKOTA  *****

CITY           SKY/WX    TMP DP  RH WIND       PRES   REMARKS
WALHALLA       NOT AVBL
LANGDON        NOT AVBL
CAVALIER       FOG       32  32 100 CALM      29.56R VSB 1/4
GRAFTON        FOG       32  32 100 E3        29.58R VSB 1/2
CANDO          NOT AVBL
FORT TOTTEN      N/A     32  32 100 SW2       29.95S
ROLLA            N/A    N/A N/A N/A MISG        N/A
RUGBY            N/A     28  28 100 W10       29.54R FOG     WCI  19
 ***** THE ABOVE OBSERVATIONS ARE NON NWS ARE NOT QUALITY
        CONTROLLED AND MAY MIS-REPORT RAIN FOR SNOW...
$$

 *****  OTHER OBSERVATIONS SOUTHEAST NORTH DAKOTA *****

CITY           SKY/WX    TMP DP  RH WIND       PRES   REMARKS
COOPERSTOWN    FOG       32  32 100 W5        29.55R VSB 1/4
VALLEY CITY    LGT SNOW  32  32 100 W6        29.56R
OAKES          NOT AVBL
GWINNER        CLOUDY    34  34 100 CALM      29.55R VSB 1/4
SHEYENNE NWR     N/A     33  33 100 CALM      29.95S
BUFFALO        NOT AVBL
WYNDMERE       NOT AVBL
 ***** THE ABOVE OBSERVATIONS ARE NON NWS ARE NOT QUALITY
       CONTROLLED AND MAY MIS-REPORT RAIN FOR SNOW...
$$

  *****  WEATHER ACROSS NORTHERN MINNESOTA  *****

CITY           SKY/WX    TMP DP  RH WIND       PRES   REMARKS
FLAG ISLAND    CLOUDY    34  34 100 CALM      29.57S FOG
WARROAD        FOG       34  30  86 NE3       29.58S VSB 1/4
ROSEAU         HAZE      36  30  80 E5        29.57S VSB 1/2
HALLOCK        DRIZZLE   36  34  93 E5        29.56S
THF RVR FALLS  LGT RAIN  34  34 100 E5        29.56S
HALSTAD        NOT AVBL
FOSSTON        FOG       32  30  93 CALM      29.55R VSB 3/4
BAUDETTE       CLOUDY    34  33  96 E5        29.56S
WASKISH        FOG       36  34  93 CALM      29.56R VSB 3/4
CROOKSTON      CLOUDY    36  34  93 E3        29.56S
$$
  *****  WEATHER ACROSS CENTRAL AND WEST MINNESOTA  *****

CITY           SKY/WX    TMP DP  RH WIND       PRES   REMARKS
BEMIDJI        FOG       33  33 100 NE3       29.54R VSB 1/2
PARK RAPIDS    FOG       35  33  92 N3        29.52R VSB 1/2
WADENA         FOG       34  34 100 CALM      29.53R VSB 1/2
DETROIT LAKES  FOG       34  34 100 CALM      29.55R VSB 1/2
MOORHEAD       CLOUDY    34  32  93 CALM      29.56R FOG
FERGUS FALLS   CLOUDY    34  34 100 CALM      29.58R FOG
ELBOW LAKE     SNOW      33  33 100 CALM      29.54S VSB 1/2
MORRIS MN      FOG       34  34 100 CALM      29.53R VSB 1
STAPLES        FOG       34  34 100 CALM      29.53R VSB 1/2
WHEATON        FOG       39  39 100 CALM      29.57R VSB 1/2
$$
  *****  WEATHER ELSEWHERE ACROSS MINNESOTA  *****

CITY           SKY/WX    TMP DP  RH WIND       PRES   REMARKS
DULUTH         DRZL/FOG  34  34 100 NE8       29.51S VSB 1
INTRNTL FALLS  FOG       35  33  92 CALM      29.57R VSB 1/4
ELY            CLOUDY    34  34 100 CALM      29.54R
CLOQUET        CLOUDY    34  34 100 CALM      29.52R FOG
BRAINERD       CLOUDY    34  34 100 NE5       29.53R FOG
HIBBING        CLOUDY    33  33 100 CALM      29.53R FOG
ALEXANDRIA     FOG       33  33 100 W3        29.53R VSB 1/2
SAINT CLOUD    FOG       33  33 100 NW3       29.53R VSB 1/4
MINNEAPOLIS    DRZL/FOG  37  35  92 CALM      29.53R VSB 1/2
$$

  *****  WEATHER ACROSS SOUTH DAKOTA  *****

CITY           SKY/WX    TMP DP  RH WIND       PRES   REMARKS
SIOUX FALLS    CLOUDY    32  29  88 NW6       29.55R
BROOKINGS      CLOUDY    30  28  93 NW12      29.52R WCI  21
WATERTOWN      CLOUDY    30  28  92 NW9       29.53R WCI  22
HURON          CLOUDY    31  28  89 NW8       29.57R WCI  23
SISSETON         N/A     34  34 100 NW5       29.54R
ABERDEEN       CLOUDY    33  29  85 NW6       29.56R
MITCHELL       CLOUDY    32  30  92 NW7       29.58R
PIERRE         FAIR      20  18  92 CALM      29.57R
MOBRIDGE       FOG       16  12  84 CALM      29.56R VSB 1/4
RAPID CITY     FAIR      29  23  78 NW9       29.60R WCI  20
$$

  *****  SOME WEATHER IN NEARBY STATES *****

CITY           SKY/WX    TMP DP  RH WIND       PRES   REMARKS
GLASGOW MT     FAIR      18  14  84 W6        29.60R FOG     WCI  10
GREAT FALLS MT FAIR      20  17  88 SW9       29.66R WCI   9
CHEYENNE WY    CLOUDY    28  19  69 W5        29.62R WCI  23
SCOTTSBLUFF NE FAIR      29  25  85 N6        29.60R WCI  23
OMAHA NE       FAIR      34  29  82 CALM      29.55R
DES MOINES IA  FAIR      34  32  92 CALM      29.56R FOG
DAVENPORT IA   CLOUDY    41  38  89 W6        29.60R
CHICAGO IL     FOG       41  41 100 NW5       29.58R VSB 1/8
EAU CLAIRE WI  FOG       34  34 100 SW3       29.51R VSB 1/4
LA CROSSE WI   CLOUDY    41  38  89 S7        29.53R
$$

  *****  SOME NATIONAL WEATHER *****

CITY           SKY/WX    TMP DP  RH WIND       PRES   REMARKS
LA GUARDIA NY  FOG       47  44  90 SW8       29.80S VSB 1
RALEIGH NC     FOG       55  55 100 CALM      29.67S VSB 1/8
ATLANTA GA     MOCLDY    57  56  96 E3        29.66F
NEW ORLEANS LA FAIR      72  69  90 SW14      29.52S
OKLAHOMA CITY  FAIR      53  43  68 SE10      29.33F
ALBUQUERQUE NM CLOUDY    39  23  52 W5        29.79R
SALT LAKE CITY MOCLDY    31  28  89 SE5       29.89R
LOS ANGELES CA MOCLDY    56  48  74 W8        30.08R
BOISE ID       MOCLDY    36  31  82 SE13      29.77S
SEATTLE WA     CLOUDY    44  43  96 S3        29.57R
$$

*** WEATHER ACROSS MANITOBA...SASKATCHEWAN AND ONTARIO ***
                ***ONTARIO***

CITY           SKY/WX    TMP DP  RH WIND       PRES   REMARKS
GERALDTON      FOG       32  32 100 NE9       29.65R VSB 3/4 WCI  24
THUNDER BAY    LGT SNOW  34  34 100 E12       29.59S FOG
SIOUX LOOKOUT  CLOUDY    34  34 100 E5        29.59S FOG
TORONTO        FOG       41  39  93 NE5       29.70S VSB 5/8
BIG TROUT LK   CLOUDY    25  23  93 E10G17    29.77S WCI  15
PICKLE LAKE    NOT AVBL
DRYDEN         FOG       34  34 100 E5        29.57S VSB 1/4
KENORA         NOT AVBL
$$
                *** MANITOBA***

CITY           SKY/WX    TMP DP  RH WIND       PRES   REMARKS
BRANDON        LGT SNOW  32  32 100 S2        29.53R VSB 3/4
DAUPHIN        CLOUDY    32  32 100 SE2       29.53S
ISLAND LAKE    FLURRIES  32  30  93 E5        29.65S
PILOT MOUND      N/A     32  32 100 S7          N/A
THE PAS        FOG       32  32 100 E7        29.58R VSB 1/2
THOMPSON       FRZ RAIN  30  28  93 E5        29.67R FOG
WINNIPEG       CLOUDY    34  34 100 SE6       29.58R
LYNN LAKE      LGT SNOW  28  28 100 E6        29.66S WCI  22
CHURCHILL      FLURRIES  16  14  93 SE14      29.88R WCI   1
GILLAM         CLOUDY    27  25  93 E6        29.75R WCI  20
$$
                ***SASKATCHEWAN***

CITY           SKY/WX    TMP DP  RH WIND       PRES   REMARKS
ESTEVAN        FOG       27  27 100 W9        29.54R VSB 1/2 WCI  17
KINDERSLEY     FOG       28  28 100 N14       29.62R VSB 1   WCI  17
LLOYDMINSTER   CLOUDY    25  25 100 N10G17    29.69R FOG     WCI  15
PRINCE ALBERT  CLOUDY    25  21  86 N13       29.58R WCI  13
REGINA         FLURRIES  27  25  93 NW7       29.54R WCI  19
YORKTON        LGT SNOW  30  28  93 W5        29.51R  C1F1C2F2C3F3C4F4C5F5C6F6C7F7C8F8C9F9CaFaCbFbCcFcCdFdCe!



USA.gov is the U.S. government's official web portal to all federal, state and local government web resources and services.